Location: Betpouey
(42.8833°N, 0.0333°E)
Time: 08:27:11
(UTC+00:00)

YAOGAN 1 - Pass Details

Date: 01 December 2020
Orbit: 618 x 620 km, 97.9° (Epoch: 17 January)

Event Time Altitude Azimuth Distance (km) Brightness Sun altitude
Rises 18:37:59 0° 165° (SSE) 2,882 5.9 -23.5°
Enters shadow 18:38:59 - 165° (SSE) 2,466 5.6 -23.6°
Exits shadow 18:46:27 32° 348° (NNW) 1,070 3.7 -25.0°
Drops below altitude 10° 18:48:50 10° 348° (NNW) 1,997 5.2 -25.4°
Sets 18:51:02 0° 348° (NNW) 2,908 6.1 -25.8°
